Alexandria, LA

4:48 PM CDT on August 25, 2016 (GMT -0500)
Alexandria International

Weather History for KAEX - October, 2012

Change the Weather History Date:

Wednesday, October 3, 2012

  Actual Average Record
Temperature  
Mean Temperature 70 °F 71 °F  
Max Temperature 83 °F 83 °F 98 °F (1900)
Min Temperature 57 °F 60 °F 42 °F (1984)
Degree Days  
Heating Degree Days 0 1  
Month to date heating degree days 0 3  
Since 1 July heating degree days 0 6  
Cooling Degree Days 5 7  
Month to date cooling degree days 9 21  
Year to date cooling degree days 2689 2371  
Growing Degree Days 20 (Base 50)    
Moisture  
Dew Point 58 °F    
Average Humidity 67    
Maximum Humidity 97    
Minimum Humidity 37    
Precipitation  
Precipitation 0.00 in 0.22 in 5.45 in (1995)
Month to date precipitation 0.01 0.68  
Year to date precipitation 46.74 39.81  
Snow  
Snow 0.00 in - 0.00 in ()
Month to date snowfall 0.0  
Since 1 July snowfall 0.0  
Since 1 September snowfall 0.0  
Snow Depth 0.00 in    
Sea Level Pressure  
Sea Level Pressure 30.02 in    
Wind  
Wind Speed 2 mph (SSE)    
Max Wind Speed 9 mph    
Max Gust Speed 16 mph    
Visibility 8 miles    
Events      
T = Trace of Precipitation, MM = Missing Value Source: NWS Daily Summary

Daily Weather History Graph

Daily Weather History Graph

Search for Another Location

Airport or City:

Trip Planner

Search our weather history database for the weather conditions in past years. The results will help you decide how hot, cold, wet, or windy it might be!

Date:

Astronomy

Oct. 03, 2012 Rise Set
Actual Time 7:05 AM CDT 6:52 PM CDT
Civil Twilight 6:41 AM CDT 7:16 PM CDT
Nautical Twilight 6:13 AM CDT 7:44 PM CDT
Astronomical Twilight 5:44 AM CDT 8:12 PM CDT
Moon 9:00 PM CDT (10/3) 10:14 AM CDT (10/3)
Length of Visible Light 12h 35m
Length of Day
11h 46m
Waning Gibbous, 88% of the Moon is Illuminated
Oct 3
Waning Gibbous
Oct 8
Last Quarter
Oct 15
New
Oct 21
First Quarter
Oct 29
Full

Hourly Weather History & Observations

Time (CDT) Temp. Heat Index Dew Point Humidity Pressure Visibility Wind Dir Wind Speed Gust Speed Precip Events Conditions
12:53 AM 61.0 °F - 59.0 °F 93% 29.97 in 9.0 mi Calm Calm - N/A   Partly Cloudy
1:53 AM 61.0 °F - 59.0 °F 93% 29.97 in 8.0 mi Calm Calm - N/A   Scattered Clouds
2:53 AM 60.1 °F - 57.9 °F 93% 29.97 in 8.0 mi Calm Calm - N/A   Clear
3:53 AM 59.0 °F - 57.9 °F 96% 29.96 in 4.0 mi Calm Calm - N/A   Clear
4:53 AM 57.9 °F - 55.9 °F 93% 29.98 in 7.0 mi Calm Calm - N/A   Clear
5:53 AM 60.1 °F - 57.9 °F 93% 30.00 in 9.0 mi Calm Calm - 0.01 in   Clear
6:53 AM 57.9 °F - 55.9 °F 93% 30.00 in 6.0 mi Calm Calm - N/A   Clear
7:16 AM 57.2 °F - 55.4 °F 94% 29.99 in 1.8 mi Calm Calm - N/A   Clear
7:53 AM 60.1 °F - 57.9 °F 93% 30.02 in 5.0 mi Calm Calm - N/A   Clear
8:53 AM 64.9 °F - 60.1 °F 84% 30.04 in 8.0 mi Calm Calm - N/A   Clear
9:53 AM 70.0 °F - 61.0 °F 73% 30.06 in 9.0 mi East 3.5 mph - N/A   Clear
10:53 AM 73.9 °F - 62.1 °F 66% 30.06 in 10.0 mi SE 4.6 mph - N/A   Clear
12:53 PM 79.0 °F - 62.1 °F 56% 30.04 in 10.0 mi SE 4.6 mph - N/A   Partly Cloudy
1:53 PM 82.0 °F 81.6 °F 55.9 °F 41% 30.02 in 10.0 mi SW 8.1 mph - N/A   Mostly Cloudy
2:53 PM 82.0 °F 81.4 °F 55.0 °F 39% 30.00 in 10.0 mi Variable 3.5 mph - N/A   Scattered Clouds
3:53 PM 82.0 °F 81.2 °F 53.1 °F 37% 30.00 in 10.0 mi West 4.6 mph - N/A   Clear
4:53 PM 82.0 °F 81.4 °F 55.0 °F 39% 30.01 in 10.0 mi SSE 5.8 mph - N/A   Scattered Clouds
5:53 PM 79.0 °F - 57.0 °F 47% 30.01 in 10.0 mi South 4.6 mph - N/A   Clear
6:53 PM 73.9 °F - 57.9 °F 57% 30.03 in 10.0 mi SSE 3.5 mph - N/A   Clear
7:53 PM 69.1 °F - 61.0 °F 75% 30.04 in 10.0 mi Calm Calm - N/A   Clear
8:53 PM 66.9 °F - 61.0 °F 81% 30.06 in 10.0 mi Calm Calm - N/A   Clear
9:53 PM 64.0 °F - 60.1 °F 87% 30.08 in 9.0 mi ESE 3.5 mph - N/A   Clear
10:53 PM 63.0 °F - 60.1 °F 90% 30.09 in 8.0 mi ESE 3.5 mph - N/A   Clear